[[{"header":{"parameterUnit":"m.s-1","parameterCategory":1,"la1":30.2991,"la2":30.254,"lo1":-89.0895,"lo2":-89.0444,"dy":0.0017,"dx":0.0017,"nx":28,"ny":28,"refTime":"2024-08-19T09:00:00:Z","depth":0,"parameterNumber":2,"parameterNumberName":"U-component_of_WINDS"},"data":[0,0,0,0,0,0,0,0,0,0,0,0,0,0,0,0,0,0,0,0,0,0,0,0,0,0,0,0,0,0,0,0,0,0,0,0,0,0,0,0,0,0,0,0,0,0,0,0,0,0,0,0,0,0,0,0,0,0,0.0866,0.0864,0,0.0689,0.0687,0.0685,0.0628,0.0629,0.063,0.0631,0.0445,0.0439,0.0434,0,0,0,0,0,0,0,0,0,0,0,0,0,0.115,0.1145,0.0866,0.0864,0.0862,0.069,0.0687,0.0685,0.0628,0.0629,0.063,0.0631,0.0447,0.044,0.0433,0,0,0,0,0,0,0,0,0,0,0,0,0,0.1005,0.1144,0.0867,0.0813,0.0807,0.069,0.0687,0.0684,0.0628,0.0629,0.0631,0.0632,0.0449,0.0441,0.0432,0.0355,0,0,0.0406,0.0402,0,0,0,0,0,0,0,0,0.1014,0.0995,0.0823,0.0817,0.0809,0.0682,0.0719,0.0574,0.0628,0.0696,0.0631,0.0632,0.0522,0.0508,0.0472,0.0346,0.0338,0.0405,0.04,0.0396,0.0394,0,0,0,0,0,0,0,0.1024,0.1002,0.0796,0.0821,0.0812,0.0796,0.0777,0.0691,0.0604,0.069,0.0685,0.0665,0.0519,0.048,0.0467,0.0335,0.0405,0.0398,0.0392,0.0389,0.0135,0.0134,0,0,0,0,0,0,0.1044,0.1011,0.0802,0.0791,0.0917,0.079,0.0769,0.0722,0.0605,0.0589,0.0665,0.0663,0.0494,0.0477,0.046,0.0361,0.0396,0.0388,0.0383,0.0137,0.0135,0.0133,0,0,0,0,0,0,0.105,0.1025,0.0809,0.09,0.0871,0.0784,0.0732,0.0718,0.0679,0.0586,0.057,0.0642,0.0495,0.0472,0.0381,0.0353,0.0384,0.0377,0.0139,0.0136,0.0134,0.0162,0,0,0,0,0,0,0.1058,0.1028,0.0999,0.0899,0.0866,0.0734,0.073,0.0713,0.0665,0.0662,0.056,0.0544,0.0494,0.0394,0.0373,0.0342,0.037,0.0141,0.0138,0.0135,0.0163,0.0161,0.0159,0,0,0,0,0,0.1069,0.1013,0.0998,0.0973,0.0828,0.0733,0.0714,0.0658,0.0663,0.0632,0.0572,0.0548,0.0361,0.0386,0.0361,0.0327,0.0142,0.0138,0.0135,0.0164,0.0161,0.0159,0,0,0,0,0,0,0.111,0.0999,0.0981,0.0892,0.0823,0.0724,0.0683,0.0657,0.0584,0.0584,0.0517,0.0494,0.0408,0.0358,0.0388,0.0245,0.025,0.0241,0.0281,0.0277,0.0275,0.0288,0.0363,0,0,0,0,0,0.1109,0.1043,0.0949,0.0879,0.0845,0.0771,0.0727,0.069,0.0615,0.0585,0.0518,0.0445,0.0369,0.0321,0.0246,0.0156,0.0132,0.0121,0.0119,0.0117,0.011,0.0057,0.005,0.0121,0.0121,0.0121,0,0,0.1106,0.1037,0.0999,0.0886,0.0828,0.0758,0.0746,0.0674,0.0621,0.0573,0.0483,0.0432,0.0345,0.0254,0.0211,0.021,0.0085,0.0113,0.0112,0.0105,0.0052,0.0046,0.004,0.0119,0.0119,0.012,0,0,0.1064,0.1006,0.0941,0.0884,0.0797,0.0747,0.0732,0.0637,0.0601,0.051,0.0473,0.0408,0.028,0.022,0.0172,0.0108,0.0081,0.0085,0.0073,0.0023,0.0017,0.0012,-0.0013,-0.0021,0.0079,0.0079,0.0079,0,0.107,0.0966,0.0911,0.084,0.0791,0.0746,0.0679,0.0625,0.0517,0.0483,0.0485,0.0323,0.0262,0.0155,0.0139,0.0103,0.0081,0.0096,0.0023,0.0017,0.0011,-0.0014,-0.0023,0.008,0.0079,0.0079,0.0079,0,0.0977,0.0906,0.0863,0.0762,0.0708,0.064,0.0572,0.0524,0.0492,0.0442,0.0349,0.0274,0.0183,0.0155,0.0123,0.0043,0.0046,0.0036,0.0039,0.0006,-0.0018,-0.0028,0.0081,0.0081,0.008,0.008,0,0,0.0955,0.0825,0.081,0.0763,0.0664,0.0606,0.0535,0.0448,0.0407,0.0334,0.0271,0.0164,0.0154,0.01,0.0061,0.0017,-0.0032,0.0012,0.0009,0.0005,-0.0126,-0.0119,-0.0129,-0.0049,-0.0051,-0.0052,-0.012,0,0.0899,0.0772,0.072,0.0616,0.0548,0.0505,0.0443,0.0374,0.0325,0.0259,0.0205,0.0129,0.0123,0.009,0.0045,-0.0016,-0.0059,-0.0012,-0.011,-0.0113,-0.0089,-0.0142,-0.0135,-0.0195,-0.0129,-0.0131,-0.0132,0,0.0817,0.0745,0.0635,0.0543,0.0513,0.0458,0.0373,0.0311,0.0232,0.0199,0.014,0.0103,0.0024,0.0034,-0.0076,-0.0042,-0.0086,-0.0121,-0.0125,-0.0138,-0.0126,-0.0158,-0.0215,-0.0225,-0.0147,-0.0146,-0.0145,0,0.081,0.0686,0.0603,0.0565,0.0456,0.0418,0.0371,0.0293,0.0244,0.0169,0.0136,0.0053,0.0007,-0.0057,-0.0117,-0.0104,-0.0222,-0.0216,-0.0253,-0.0251,-0.0277,-0.0275,-0.0344,-0.0302,-0.0302,-0.0301,-0.0301,0,0.0752,0.0686,0.0599,0.0548,0.0472,0.0412,0.0338,0.0287,0.0218,0.0155,0.0113,0.0055,-0.0019,-0.0087,-0.0134,-0.0219,-0.0239,-0.0269,-0.0281,-0.0266,-0.0263,-0.0297,-0.0295,-0.0304,-0.0303,-0.0303,-0.0302,0,0.073,0.067,0.0577,0.0482,0.0457,0.0405,0.0323,0.0271,0.0221,0.0141,0.0119,0.004,-0.0043,-0.0107,-0.0216,-0.0247,-0.0338,-0.035,-0.031,-0.0317,-0.035,-0.0347,-0.0445,-0.0462,-0.0406,-0.0407,-0.0407,0,0.0697,0.0645,0.0545,0.0501,0.0454,0.0383,0.0333,0.0272,0.0221,0.0127,0.0085,0.0,-0.0072,-0.0202,-0.0271,-0.0354,-0.037,-0.0398,-0.0383,-0.0367,-0.0373,-0.037,-0.0376,-0.0401,-0.0401,-0.0401,-0.0402,0,0.0642,0.0615,0.0545,0.0464,0.0405,0.0338,0.027,0.0236,0.0162,0.0107,0.0022,-0.0033,-0.0143,-0.0228,-0.0318,-0.0369,-0.0399,-0.0406,-0.0419,-0.0406,-0.0381,-0.0397,-0.0318,-0.0404,-0.0403,-0.0403,-0.0403,-0.0403,0.0612,0.0563,0.0485,0.0408,0.0351,0.0288,0.0235,0.0178,0.0108,0.0015,-0.0017,-0.0105,-0.0184,-0.0308,-0.0359,-0.043,-0.0432,-0.045,-0.0455,-0.046,-0.0459,-0.0368,-0.0446,-0.0446,-0.0446,-0.0446,-0.0446,0,0.0553,0.0502,0.0432,0.0338,0.0277,0.0257,0.0181,0.013,0.0055,-0.0016,-0.0085,-0.0183,-0.0265,-0.034,-0.0426,-0.0469,-0.0484,-0.0489,-0.0488,-0.05,-0.0452,-0.0432,-0.0475,-0.0475,-0.0475,-0.0475,-0.0475,-0.0475,0.0516,0.0432,0.0396,0.0283,0.0231,0.0146,0.0104,0.0045,-0.0011,-0.0118,-0.0186,-0.0233,-0.0307,-0.0399,-0.0476,-0.0496,-0.0527,-0.0529,-0.0553,-0.0507,-0.0503,-0.0499,-0.0482,-0.0535,-0.0535,-0.0596,-0.0596,-0.0596]},{"header":{"parameterUnit":"m.s-1","parameterCategory":1,"la1":30.2991,"la2":30.254,"lo1":-89.0895,"lo2":-89.0444,"dy":0.0017,"dx":0.0017,"nx":28,"ny":28,"refTime":"2024-08-19T09:00:00:Z","depth":0,"parameterNumber":3,"parameterNumberName":"V-component_of_WINDS"},"data":[0,0,0,0,0,0,0,0,0,0,0,0,0,0,0,0,0,0,0,0,0,0,0,0,0,0,0,0,0,0,0,0,0,0,0,0,0,0,0,0,0,0,0,0,0,0,0,0,0,0,0,0,0,0,0,0,0,0,-3.5691,-3.5691,0,-3.5725,-3.5725,-3.5726,-3.5642,-3.5639,-3.5636,-3.5634,-3.5667,-3.5671,-3.5674,0,0,0,0,0,0,0,0,0,0,0,0,0,-3.5552,-3.5555,-3.5691,-3.5691,-3.5692,-3.5725,-3.5725,-3.5726,-3.5642,-3.5639,-3.5636,-3.5633,-3.5666,-3.567,-3.5674,0,0,0,0,0,0,0,0,0,0,0,0,0,-3.5602,-3.5556,-3.5691,-3.5654,-3.5651,-3.5725,-3.5725,-3.5726,-3.5643,-3.5639,-3.5635,-3.5631,-3.5665,-3.567,-3.5675,-3.5785,0,0,-3.569,-3.5692,0,0,0,0,0,0,0,0,-3.5599,-3.5607,-3.5659,-3.5657,-3.5654,-3.5675,-3.5688,-3.5746,-3.5644,-3.5646,-3.5634,-3.5629,-3.5673,-3.5677,-3.5692,-3.5787,-3.5788,-3.569,-3.5694,-3.5696,-3.5697,0,0,0,0,0,0,0,-3.5596,-3.5605,-3.5704,-3.566,-3.5657,-3.5635,-3.5638,-3.5699,-3.5681,-3.5646,-3.5639,-3.5645,-3.5671,-3.5687,-3.5692,-3.5789,-3.569,-3.5695,-3.5698,-3.57,-3.5975,-3.5979,0,0,0,0,0,0,-3.5597,-3.5603,-3.5703,-3.5705,-3.5616,-3.5641,-3.5644,-3.5672,-3.568,-3.5678,-3.5648,-3.5641,-3.5681,-3.5686,-3.5693,-3.5823,-3.5696,-3.57,-3.5703,-3.5971,-3.5976,-3.5981,0,0,0,0,0,0,-3.5595,-3.5607,-3.5702,-3.5652,-3.5663,-3.5648,-3.568,-3.5675,-3.5692,-3.5682,-3.5679,-3.5669,-3.5678,-3.5686,-3.5763,-3.5823,-3.5703,-3.5707,-3.5966,-3.5972,-3.5978,-3.6084,0,0,0,0,0,0,-3.5591,-3.5607,-3.5649,-3.5654,-3.5666,-3.5772,-3.5684,-3.5678,-3.5701,-3.5691,-3.5701,-3.5698,-3.5675,-3.5756,-3.5768,-3.5828,-3.5711,-3.596,-3.5969,-3.5976,-3.6075,-3.6093,-3.6109,0,0,0,0,0,-3.5586,-3.5677,-3.5651,-3.5664,-3.5719,-3.5776,-3.5782,-3.5755,-3.5706,-3.5748,-3.5742,-3.5698,-3.5814,-3.5764,-3.5777,-3.584,-3.5956,-3.5966,-3.5976,-3.6068,-3.609,-3.6109,0,0,0,0,0,0,-3.5679,-3.5677,-3.5649,-3.5744,-3.5761,-3.5762,-3.5814,-3.5779,-3.581,-3.58,-3.5763,-3.5766,-3.585,-3.5852,-3.5796,-3.5947,-3.5877,-3.589,-3.5943,-3.5964,-3.598,-3.5978,-3.5715,0,0,0,0,0,-3.571,-3.5758,-3.5753,-3.5837,-3.5847,-3.583,-3.5853,-3.583,-3.5846,-3.5853,-3.5852,-3.5869,-3.5909,-3.5936,-3.5972,-3.6075,-3.6076,-3.6124,-3.6141,-3.6155,-3.6166,-3.6221,-3.6242,-3.6012,-3.6012,-3.6012,0,0,-3.5776,-3.5781,-3.5813,-3.5856,-3.5866,-3.5916,-3.5836,-3.5891,-3.5927,-3.5861,-3.5934,-3.5934,-3.595,-3.604,-3.608,-3.6045,-3.623,-3.6167,-3.6178,-3.6182,-3.6233,-3.6255,-3.6274,-3.6019,-3.6018,-3.6017,0,0,-3.5921,-3.5929,-3.6,-3.6013,-3.6029,-3.6017,-3.6034,-3.604,-3.6038,-3.6111,-3.6062,-3.6103,-3.6173,-3.6187,-3.6203,-3.6353,-3.6313,-3.6365,-3.6454,-3.6507,-3.6525,-3.6541,-3.6595,-3.6615,-3.6377,-3.6377,-3.6377,0,-3.6,-3.6073,-3.6041,-3.6101,-3.6121,-3.6063,-3.6135,-3.6148,-3.6176,-3.6191,-3.6151,-3.6238,-3.6245,-3.6337,-3.6374,-3.6389,-3.6407,-3.6365,-3.6525,-3.6541,-3.6555,-3.6606,-3.6627,-3.6383,-3.6383,-3.6382,-3.6381,0,-3.617,-3.6221,-3.6276,-3.6306,-3.6332,-3.6397,-3.6375,-3.6406,-3.638,-3.6372,-3.6446,-3.6452,-3.6489,-3.6509,-3.6484,-3.6598,-3.6576,-3.6532,-3.6461,-3.6584,-3.6631,-3.6651,-3.6392,-3.639,-3.6388,-3.6387,0,0,-3.6374,-3.6385,-3.6406,-3.6419,-3.6433,-3.6472,-3.6534,-3.657,-3.6597,-3.6618,-3.6669,-3.673,-3.6688,-3.6707,-3.6683,-3.673,-3.6849,-3.6679,-3.6679,-3.6711,-3.6975,-3.7009,-3.7032,-3.6822,-3.6826,-3.6829,-3.6974,0,-3.6518,-3.6626,-3.6599,-3.6706,-3.6753,-3.6698,-3.6752,-3.6767,-3.676,-3.6799,-3.6791,-3.6835,-3.6777,-3.6787,-3.6831,-3.6825,-3.6901,-3.6814,-3.687,-3.6872,-3.6869,-3.7057,-3.7093,-3.7229,-3.6992,-3.6995,-3.6997,0,-3.67,-3.6729,-3.6841,-3.6847,-3.6866,-3.6915,-3.6946,-3.6984,-3.6998,-3.699,-3.7011,-3.6978,-3.7039,-3.6967,-3.705,-3.6992,-3.7012,-3.7013,-3.7017,-3.7022,-3.6943,-3.7067,-3.7272,-3.7293,-3.7026,-3.7024,-3.7021,0,-3.6839,-3.6905,-3.6981,-3.6993,-3.7002,-3.7038,-3.7044,-3.7055,-3.7078,-3.7105,-3.712,-3.7154,-3.7172,-3.7199,-3.7175,-3.7125,-3.7262,-3.7189,-3.7257,-3.7258,-3.729,-3.7288,-3.7502,-3.7302,-3.7302,-3.7301,-3.7301,0,-3.7003,-3.7074,-3.7044,-3.709,-3.7168,-3.7136,-3.7213,-3.7212,-3.7222,-3.7267,-3.7221,-3.7264,-3.723,-3.727,-3.7252,-3.7324,-3.7333,-3.7328,-3.7322,-3.7333,-3.7333,-3.7346,-3.7337,-3.7307,-3.7306,-3.7304,-3.7304,0,-3.7172,-3.7155,-3.7233,-3.7236,-3.7238,-3.7295,-3.7297,-3.7339,-3.7329,-3.7387,-3.7398,-3.7383,-3.7427,-3.7406,-3.7453,-3.7441,-3.7534,-3.7515,-3.7529,-3.7525,-3.7595,-3.7589,-3.7825,-3.7855,-3.7635,-3.7637,-3.7639,0,-3.7278,-3.7331,-3.7339,-3.7367,-3.7375,-3.742,-3.7444,-3.7414,-3.744,-3.7461,-3.7502,-3.7542,-3.7574,-3.7647,-3.764,-3.7675,-3.7657,-3.7737,-3.7662,-3.7671,-3.7659,-3.7657,-3.7662,-3.7753,-3.7756,-3.7758,-3.7759,0,-3.7468,-3.7457,-3.7494,-3.7528,-3.7558,-3.7583,-3.7604,-3.7629,-3.76,-3.7632,-3.7677,-3.7702,-3.7749,-3.779,-3.7821,-3.7825,-3.7788,-3.7783,-3.7801,-3.7812,-3.7819,-3.7817,-3.7571,-3.7778,-3.7776,-3.7775,-3.7774,-3.7773,-3.7609,-3.7654,-3.7667,-3.771,-3.7722,-3.7743,-3.7784,-3.7779,-3.7816,-3.7853,-3.7833,-3.7886,-3.7899,-3.7937,-3.7946,-3.7987,-3.7955,-3.7981,-3.7988,-3.7995,-3.8005,-3.7812,-3.7992,-3.7992,-3.7991,-3.7991,-3.799,0,-3.7798,-3.7804,-3.7843,-3.7874,-3.7908,-3.7869,-3.789,-3.7921,-3.7968,-3.7984,-3.8015,-3.8068,-3.8107,-3.8103,-3.8139,-3.8172,-3.8156,-3.8183,-3.818,-3.8182,-3.8031,-3.8012,-3.8195,-3.8195,-3.8195,-3.8195,-3.8195,-3.8195,-3.79,-3.7974,-3.7965,-3.8044,-3.8049,-3.8101,-3.8117,-3.8136,-3.8148,-3.8208,-3.8241,-3.8238,-3.8245,-3.8281,-3.8316,-3.8313,-3.8329,-3.8363,-3.8354,-3.8213,-3.8193,-3.8173,-3.8156,-3.8366,-3.8366,-3.8502,-3.8503,-3.8504]}]]